Location: New Greens
(51.7702°N, 0.3379°W)
Time: 10:18:46
(UTC+00:00)

Envisat - Pass Details

Date: 28 January 2019
Orbit: 764 x 766 km, 98.1° (Epoch: 15 October)

Event Time Altitude Azimuth Distance (km) Brightness Sun altitude
Rises 06:46:52 0° 22° (NNE) 3,245 6.3 -9.4°
Reaches altitude 10° 06:49:32 10° 34° (NE) 2,314 5.7 -9.0°
Maximum altitude 06:53:51 27° 92° (E) 1,438 5.4 -8.3°
Drops below altitude 10° 06:58:08 10° 150° (SSE) 2,298 6.3 -7.7°
Sets 07:00:45 0° 163° (SSE) 3,219 6.8 -7.3°
